sat.trackr.live / text

‹ back to catalog

STARLINK-2568

NORAD 48406 · 2021-038BF

PAYLOAD ACTIVE UNKNOWN

§ Identity

Operator
Country
US
Launch date
2021-05-04
Launch site
AFETR
Launch vehicle
Mass (kg)
RCS (m²)

Purposes: comms

External: N2YO · Heavens-Above · Gunter

§ Orbital elements

Epoch: 2026-09-20T04:27:49.229280Z

Period
93.87 min
Inclination
53.1556°
Eccentricity
0.0002611
Mean motion
15.34037656 rev/d
Perigee alt
462.0 km
Apogee alt
465.6 km
Semi-major
6,841.9 km
B*
7.8623e-4
RAAN
150.4037°
Arg perigee
116.2563°
Mean anomaly
243.8708°
Rev number
29,720

§ Raw data

STARLINK-25681 48406U 21038BF  26263.18598645  .00025978  00000+0  78623-3 0  99902 48406  53.1556 150.4037 0002611 116.2563 243.8708 15.34037656297205

JSON: /api/v1/satellites/48406 · /tle

For live sub-satellite position, see the globe view (requires WebGL).

§ Visibility from observer

Set your observer location to see the next 7 days of passes ≥ 10°. The values pass through the URL so the page stays shareable.

No JS? Fill the form by hand. The geolocation button needs JavaScript.